Weather History for Buckland, AK

Change the Weather History Date:

Saturday, November 3, 2012

  Actual Average (PASK) Record (PASK)
Temperature  
Mean Temperature 2 °F -  
Max Temperature 8 °F 15 °F 35 °F (2003)
Min Temperature -7 °F 6 °F -14 °F (1999)
Degree Days  
Heating Degree Days 64    
Moisture  
Dew Point -4 °F    
Average Humidity 76    
Maximum Humidity 100    
Minimum Humidity 60    
Precipitation  
Precipitation 0.00 in - - ()
Sea Level Pressure  
Sea Level Pressure 30.10 in    
Wind  
Wind Speed 7 mph (NW)    
Max Wind Speed 15 mph    
Max Gust Speed -    
Visibility 10 miles    
Events      
Averages and records for this station are not official NWS values.
T = Trace of Precipitation, MM = Missing Value Source: NWS Daily Summary

Daily Weather History Graph

Daily Weather History Graph

Search for Another Location

Airport:

Trip Planner

Search our weather history database for the weather conditions in past years. The results will help you decide how hot, cold, wet, or windy it might be!

Date:

Astronomy

Nov. 03, 2012 Rise Set
Actual Time 10:49 AM AKDT 6:05 PM AKDT
Civil Twilight 9:49 AM AKDT 7:05 PM AKDT
Nautical Twilight 8:47 AM AKDT 8:07 PM AKDT
Astronomical Twilight 7:48 AM AKDT 9:06 PM AKDT
Moon 9:07 PM AKDT (11/3) 3:55 PM AKDT (11/3)
Length of Visible Light 9h 15m
Length of Day
7h 15m
Waning Gibbous, 79% of the Moon is Illuminated
Nov 3
Waning Gibbous
Nov 6
Last Quarter
Nov 13
New
Nov 20
First Quarter
Nov 28
Full

Hourly Weather History & Observations

Time (AKDT) Temp. Windchill Dew Point Humidity Pressure Visibility Wind Dir Wind Speed Gust Speed Precip Events Conditions
12:16 AM 6.8 °F -4.8 °F -0.4 °F 72% 30.08 in 10.0 mi WNW 6.9 mph - N/A   Clear
12:36 AM 6.8 °F - 1.4 °F 79% 30.08 in 10.0 mi Calm Calm - N/A   Clear
12:56 AM 5.0 °F -2.1 °F -5.8 °F 61% 30.08 in 10.0 mi SSE 3.5 mph - N/A   Clear
1:16 AM 5.0 °F - -2.2 °F 72% 30.09 in 10.0 mi Calm Calm - N/A   Clear
1:36 AM 6.8 °F -0.1 °F 1.4 °F 79% 30.09 in 10.0 mi East 3.5 mph - N/A   Clear
1:56 AM 8.6 °F -4.7 °F 1.4 °F 73% 30.09 in 10.0 mi North 9.2 mph - N/A   Clear
2:16 AM 6.8 °F -8.6 °F 1.4 °F 79% 30.09 in 10.0 mi NNW 11.5 mph - N/A   Clear
2:36 AM 6.8 °F -9.3 °F -0.4 °F 72% 30.09 in 10.0 mi NNW 12.7 mph - N/A   Clear
2:56 AM 6.8 °F -10.0 °F -2.2 °F 67% 30.08 in 10.0 mi NNW 13.8 mph - N/A   Clear
3:16 AM 8.6 °F -6.3 °F 1.4 °F 73% 30.09 in 10.0 mi North 11.5 mph - N/A   Clear
3:36 AM 6.8 °F -3.5 °F -2.2 °F 67% 30.10 in 10.0 mi West 5.8 mph - N/A   Clear
3:56 AM 3.2 °F -6.2 °F -2.2 °F 78% 30.10 in 10.0 mi West 4.6 mph - N/A   Clear
4:16 AM 3.2 °F -6.2 °F -2.2 °F 78% 30.10 in 10.0 mi WNW 4.6 mph - N/A   Clear
4:36 AM 1.4 °F -8.3 °F -5.8 °F 72% 30.10 in 10.0 mi WNW 4.6 mph - N/A   Clear
4:56 AM 5.0 °F -8.1 °F 5.0 °F 100% 30.10 in 10.0 mi NNW 8.1 mph - N/A   Clear
5:16 AM -0.4 °F -10.4 °F -11.2 °F 60% 30.10 in 10.0 mi West 4.6 mph - N/A   Clear
5:36 AM 1.4 °F -12.5 °F 1.4 °F 100% 30.10 in 10.0 mi WNW 8.1 mph - N/A   Clear
5:56 AM 3.2 °F -12.2 °F -7.6 °F 61% 30.09 in 10.0 mi NNW 10.4 mph - N/A   Clear
6:16 AM 3.2 °F -12.2 °F -2.2 °F 78% 30.09 in 10.0 mi NNW 10.4 mph - N/A   Clear
6:36 AM 5.0 °F -10.0 °F 1.4 °F 85% 30.10 in 10.0 mi NNW 10.4 mph - N/A   Clear
6:56 AM 1.4 °F -12.5 °F -7.6 °F 66% 30.10 in 10.0 mi NNW 8.1 mph - N/A   Clear
7:16 AM 3.2 °F -11.3 °F 1.4 °F 92% 30.10 in 10.0 mi NNW 9.2 mph - N/A   Clear
7:36 AM 3.2 °F -13.1 °F -2.2 °F 78% 30.10 in 10.0 mi NNW 11.5 mph - N/A   Clear
7:56 AM 3.2 °F -11.3 °F -2.2 °F 78% 30.10 in 10.0 mi NW 9.2 mph - N/A   Clear
8:16 AM 1.4 °F -6.2 °F -7.6 °F 66% 30.10 in 10.0 mi West 3.5 mph - N/A   Clear
8:36 AM 1.4 °F -11.3 °F -0.4 °F 92% 30.10 in 10.0 mi NNW 6.9 mph - N/A   Clear
8:56 AM 1.4 °F - -4.0 °F 78% 30.10 in 10.0 mi Calm Calm - N/A   Clear
9:16 AM 1.4 °F - -5.8 °F 72% 30.11 in 10.0 mi Calm Calm - N/A   Clear
9:36 AM 1.4 °F -6.2 °F -5.8 °F 72% 30.11 in 10.0 mi WNW 3.5 mph - N/A   Clear
9:56 AM -0.4 °F -13.4 °F -2.2 °F 92% 30.11 in 10.0 mi WNW 6.9 mph - N/A   Clear
10:16 AM -0.4 °F -12.0 °F -5.8 °F 78% 30.11 in 10.0 mi WNW 5.8 mph - N/A   Clear
10:36 AM 1.4 °F -14.5 °F -2.2 °F 85% 30.11 in 10.0 mi NW 10.4 mph - N/A   Clear
10:56 AM -0.4 °F -17.6 °F -5.8 °F 78% 30.11 in 10.0 mi NW 11.5 mph - N/A   Clear
11:16 AM 1.4 °F -8.3 °F -5.8 °F 72% 30.11 in 10.0 mi SSW 4.6 mph - N/A   Clear
11:36 AM 1.4 °F - -5.8 °F 72% 30.11 in 10.0 mi Calm Calm - N/A   Clear
11:56 AM 1.4 °F -12.5 °F -4.0 °F 78% 30.11 in 10.0 mi NW 8.1 mph - N/A   Clear
12:16 PM 1.4 °F -11.3 °F -4.0 °F 78% 30.11 in 10.0 mi SSE 6.9 mph - N/A   Clear
12:36 PM 5.0 °F -6.9 °F 1.4 °F 85% 30.11 in 10.0 mi NW 6.9 mph - N/A   Clear
12:56 PM 3.2 °F -11.3 °F -4.0 °F 72% 30.10 in 10.0 mi NW 9.2 mph - N/A   Clear
1:16 PM 6.8 °F -5.9 °F 1.4 °F 79% 30.10 in 10.0 mi NNW 8.1 mph - N/A   Clear
1:36 PM 5.0 °F -9.1 °F -2.2 °F 72% 30.10 in 10.0 mi NW 9.2 mph - N/A   Clear
1:56 PM 6.8 °F -10.7 °F -0.4 °F 72% 30.09 in 10.0 mi NW 15.0 mph - N/A   Clear
2:16 PM 6.8 °F -8.6 °F -0.4 °F 72% 30.09 in 10.0 mi NNW 11.5 mph - N/A   Clear
2:36 PM 6.8 °F -8.6 °F -0.4 °F 72% 30.09 in 10.0 mi WNW 11.5 mph - N/A   Clear
2:56 PM 6.8 °F -8.6 °F -0.4 °F 72% 30.09 in 10.0 mi NW 11.5 mph - N/A   Clear
3:16 PM 6.8 °F -7.8 °F -0.4 °F 72% 30.09 in 10.0 mi NW 10.4 mph - N/A   Clear
3:36 PM 6.8 °F -6.9 °F -0.4 °F 72% 30.09 in 10.0 mi NNW 9.2 mph - N/A   Clear
3:56 PM 6.8 °F -7.8 °F -0.4 °F 72% 30.09 in 10.0 mi WNW 10.4 mph - N/A   Clear
4:16 PM 6.8 °F -6.9 °F -0.4 °F 72% 30.08 in 10.0 mi NW 9.2 mph - N/A   Clear
4:36 PM 6.8 °F -4.8 °F -0.4 °F 72% 30.09 in 10.0 mi NNW 6.9 mph - N/A   Clear
4:56 PM 6.8 °F -7.8 °F -2.2 °F 67% 30.08 in 10.0 mi WNW 10.4 mph - N/A   Clear
5:16 PM 5.0 °F -6.9 °F -2.2 °F 72% 30.08 in 10.0 mi WNW 6.9 mph - N/A   Clear
5:36 PM 5.0 °F -9.1 °F -2.2 °F 72% 30.08 in 10.0 mi NW 9.2 mph - N/A   Clear
5:56 PM 3.2 °F -10.3 °F -2.2 °F 78% 30.08 in 10.0 mi WNW 8.1 mph - N/A   Clear
6:16 PM 3.2 °F -11.3 °F -4.0 °F 72% 30.08 in 10.0 mi NW 9.2 mph - N/A   Clear
6:36 PM 1.4 °F -12.5 °F -4.0 °F 78% 30.09 in 10.0 mi NW 8.1 mph - N/A   Clear
6:56 PM 1.4 °F -12.5 °F -4.0 °F 78% 30.09 in 10.0 mi NW 8.1 mph - N/A   Clear
7:16 PM 1.4 °F -9.9 °F -7.6 °F 66% 30.09 in 10.0 mi WNW 5.8 mph - N/A   Clear
7:36 PM 1.4 °F -8.3 °F -5.8 °F 72% 30.09 in 10.0 mi NW 4.6 mph - N/A   Clear
7:56 PM -0.4 °F -13.4 °F -2.2 °F 92% 30.09 in 10.0 mi WNW 6.9 mph - N/A   Clear
8:16 PM 1.4 °F -12.5 °F -5.8 °F 72% 30.10 in 10.0 mi NW 8.1 mph - N/A   Clear
8:36 PM -0.4 °F -10.4 °F -5.8 °F 78% 30.10 in 10.0 mi North 4.6 mph - N/A   Clear
8:56 PM -0.4 °F -12.0 °F -7.6 °F 72% 30.10 in 10.0 mi NW 5.8 mph - N/A   Clear
9:16 PM -2.2 °F -14.2 °F -5.8 °F 85% 30.10 in 10.0 mi NW 5.8 mph - N/A   Clear
9:36 PM -5.8 °F -16.7 °F -16.6 °F 60% 30.10 in 10.0 mi ENE 4.6 mph - N/A   Clear
9:56 PM -5.8 °F -14.5 °F -5.8 °F 100% 30.10 in 10.0 mi North 3.5 mph - N/A   Clear
10:16 PM -5.8 °F - -9.4 °F 84% 30.10 in 10.0 mi Calm Calm - N/A   Clear
10:36 PM -5.8 °F - -9.4 °F 84% 30.10 in 10.0 mi Calm Calm - N/A   Clear
10:56 PM -2.2 °F - -9.4 °F 71% 30.11 in 10.0 mi Calm Calm - N/A   Clear
11:16 PM -4.0 °F - -9.4 °F 78% 30.11 in 10.0 mi Calm Calm - N/A   Clear
11:36 PM -5.8 °F - -14.8 °F 65% 30.10 in 10.0 mi Calm Calm - N/A   Clear
11:56 PM -7.6 °F - -11.2 °F 84% 30.10 in 10.0 mi Calm Calm - N/A   Clear